Regional Weather Roundup
Issued by NWS

Home | Current Version | Previous Version | Graphics & Text | Print | Product List | Glossary On
Versions: 1 2 3 4 5 6 7 8 9 10 11 12 13 14 15 16 17 18 19 20 21 22 23 24 25 26 27 28 29 30 31 32 33 34 35 36 37 38 39 40 41 42 43 44 45 46 47 48 49 50
000
ASUS43 KTOP 202308
RWRKS

WEATHER ROUNDUP FOR KANSAS
NATIONAL WEATHER SERVICE GOODLAND KS
600 PM CDT WED SEP 20 2017

NOTE:  "FAIR" INDICATES FEW OR NO CLOUDS BELOW 12,000 FEET WITH NO
SIGNIFICANT WEATHER AND/OR OBSTRUCTIONS TO VISIBILITY.

KSZ001>006-013>018-027>032-041>047-210000-
NORTHWEST KANSAS

CITY           SKY/WX    TMP DP  RH WIND       PRES   REMARKS
GOODLAND       SUNNY     77  31  18 SE16      29.89S
HAYS           SUNNY     84  42  22 E13       29.83F
HILL CITY      SUNNY     83  32  16 E14       29.86S
RUSSELL        SUNNY     85  45  24 NE12      29.82S
$$

KSZ061>065-074>080-084>089-210000-
SOUTHWEST KANSAS

CITY           SKY/WX    TMP DP  RH WIND       PRES   REMARKS
DODGE CITY     SUNNY     85  44  23 E7        29.86R
ELKHART          N/A     78  44  29 SE5         N/A
GARDEN CITY    SUNNY     83  35  18 E9        29.87S
GREAT BEND     SUNNY     84  52  33 E7        29.82S
LIBERAL        SUNNY     83  46  27 SE7       29.87F
PRATT          SUNNY     85  48  28 SE5       29.82S
$$

KSZ066>073-081>083-090>101-210000-
SOUTHEAST KANSAS

CITY           SKY/WX    TMP DP  RH WIND       PRES   REMARKS
CHANUTE        MOSUNNY   89  73  59 S13       29.80S HX  97
COFFEYVILLE    SUNNY     90  73  57 S13G23    29.78S HX  98
HUTCHINSON     SUNNY     88  61  40 VRB3      29.79S
MEDICINE LODGE   N/A     87  55  33 S3        29.78S
NEWTON         MOSUNNY   87  67  51 S15       29.80S
WICHITA INTL   MOSUNNY   88  70  55 S14       29.78R
WICHITA JABRA  MOSUNNY   89  70  53 SW12      29.78S
WICHITA MCCONL MOSUNNY   91  68  47 SW10      29.78S
WINFIELD       MOSUNNY   90  71  53 S13       29.78S HX  96
$$

KSZ007>012-019>026-033>040-048>060-102>105-210000-
NORTHEAST KANSAS

CITY           SKY/WX    TMP DP  RH WIND       PRES   REMARKS
CONCORDIA      SUNNY     82  56  40 NE9       29.82S
EMPORIA        PTSUNNY   87  70  56 S8        29.79S
LAWRENCE       CLOUDY    87  75  67 S5        29.79R HX  96
MANHATTAN      SUNNY     89  64  43 VRB3      29.79R
MARYSVILLE     SUNNY     84  59  42 NE7       29.82S
OLATHE IND     PTSUNNY   86  74  67 S8        29.81S
OLATHE EXE     MOSUNNY   86  75  69 SW5       29.81S HX  95
SALINA         SUNNY     87  56  34 CALM      29.80S
TOPEKA BILLARD CLOUDY    88  71  57 S6        29.79R
TOPEKA FORBES  PTSUNNY   88  73  61 S3        29.80R HX  95
$$




USA.gov is the U.S. government's official web portal to all federal, state and local government web resources and services.